Miscellaneous Local Product
Issued by NWS Hastings, NE

Home | Current Version | Previous Version | Text Only | Print | Product List | Glossary Off
Versions: 1 2 3 4 5 6 7 8 9 10 11 12 13 14 15 16 17 18 19 20 21 22 23 24 25 26 27 28 29 30 31 32 33 34 35 36 37 38 39 40 41 42 43 44 45 46 47 48 49 50

000
AXUS43 KGID 021302
MISGRI

GID CWA HOURLY WEATHER ROUNDUP
NATIONAL WEATHER SERVICE HASTINGS NE
800 AM CDT SUN AUG 02 2015

NOTE: "FAIR" INDICATES FEW OR NO CLOUDS BELOW 12,000 FEET WITH NO
SIGNIFICANT WEATHER AND/OR OBSTRUCTIONS TO VISIBILITY.

...SOUTH CENTRAL NEBRASKA...

CITY           SKY/WX    TMP DP  RH WIND       PRES   REMARKS
GRAND ISLAND   SUNNY     74  65  73 SW10      29.90R
HASTINGS       SUNNY     70  66  87 SW6       29.92R
KEARNEY        SUNNY     70  63  78 SW9       29.92S
ORD            SUNNY     64  62  93 CALM      29.87R
YORK           MOSUNNY   68  66  94 SW10      29.89R
AURORA         SUNNY     71  68  91 SW9       29.90R
LEXINGTON      SUNNY     66  63  91 CALM      29.93R
HOLDREGE       SUNNY     71  65  81 SW6       29.93S
HEBRON         SUNNY     74  68  81 SW7       29.90S

...NEBRASKA PANHANDLE...

CITY           SKY/WX    TMP DP  RH WIND       PRES   REMARKS
CHADRON        SUNNY     65  56  72 SE6       29.96R
ALLIANCE       SUNNY     59  55  87 W5        30.00R
SCOTTSBLUFF    SUNNY     64  58  80 CALM      30.01R
SIDNEY         SUNNY     63  55  75 NW7       30.03R

...WESTERN AND NORTH CENTRAL NEBRASKA...

CITY           SKY/WX    TMP DP  RH WIND       PRES   REMARKS
VALENTINE      NOT AVBL
AINSWORTH      SUNNY     68  59  72 SW10      29.89S
ONEILL         SUNNY     67  61  79 W7        29.85S
BROKEN BOW     SUNNY     67  63  87 CALM      29.92R
IMPERIAL       SUNNY     66  60  81 W3        29.98R
NORTH PLATTE   SUNNY     61  58  90 CALM      29.94S
MCCOOK         SUNNY     68  63  84 SW3       29.95R

...EASTERN NEBRASKA...

CITY           SKY/WX    TMP DP  RH WIND       PRES   REMARKS
NORFOLK        SUNNY     70  66  87 S5        29.83R
SO SIOUX CITY  SUNNY     72  66  81 E5        29.81R
TEKAMAH        SUNNY     74  70  87 S6        29.82R
COLUMBUS       SUNNY     72  63  73 S3        29.86R
ALBION         SUNNY     68  63  82 CALM      29.85S
OMAHA EPPLEY   MOSUNNY   75  70  84 S9        29.85R
MILLARD        MOSUNNY   73  70  89 CALM      29.86R
LINCOLN        MOSUNNY   77  69  76 NW6       29.89R
NEBRASKA CITY  MOSUNNY   74  71  92 SW10      29.86F
BEATRICE       MOSUNNY   74  70  85 SW10      29.89S
FALLS CITY     MOSUNNY   75  70  84 SW12      29.88S

...NORTHERN KANSAS...

CITY           SKY/WX    TMP DP  RH WIND       PRES   REMARKS
GOODLAND       PTSUNNY   68  66  93 S6        30.01R
HILL CITY      SUNNY     72  68  87 SW5       29.95S
NORTON         SUNNY     68  63  83 SW3       29.94R
PHILLIPSBURG   SUNNY     73  72  94 CALM      29.93S FOG
SMITH CENTER   SUNNY     72  66  83 CALM      29.93S
HAYS           SUNNY     72  63  73 S5        29.95S
RUSSELL        SUNNY     73  69  87 S9        29.93S
CONCORDIA      MOSUNNY   75  70  84 SW9       29.92R
SALINA         MOSUNNY   77  70  79 S10       29.93S
TOPEKA         SUNNY     77  68  73 SW5       29.92S



USA.gov is the U.S. government's official web portal to all federal, state and local government web resources and services.